This demonstration page uses our WeatherBlox Daily Observations layout. Learn more.

Left ArrowRight Arrow

34.16533, -84.80231

Hourly Observations for July 25, 2017

Temp ( °F °C ) Dew Point ( °F °C ) Humidity (%) Winds ( mph kmh ) Pressure ( in mb ) Visibility ( mi km ) Precip ( " mm )
12:53 am 00:53 Clear 73 22.8 73 22.8 100 100 Calm 30.01 1016 8 13 0.00 0.00
1:53 am 01:53 Clear 72 22.2 72 22.2 100 100 Calm 30.01 1016 7 11 0.00 0.00
2:53 am 02:53 Clear with Mist and Fog 71 21.7 71 21.7 100 100 Calm 30.00 1016 6 10 0.00 0.00
3:53 am 03:53 Mostly Clear with Mist and Fog 71 21.7 71 21.7 100 100 Calm 30.01 1016 6 10 0.00 0.00
4:06 am 04:06 Mostly Cloudy with Mist and Fog 71 21.7 71 21.7 100 100 Calm 30.03 1017 6 10 0.00 0.00
4:40 am 04:40 Cloudy with Mist and Fog 72 22.2 72 22.2 100 100 Calm 30.03 1017 2 3 0.00 0.00
4:53 am 04:53 Mostly Cloudy with Mist and Fog 72 22.2 72 22.2 100 100 Calm 30.02 1017 1 1 0.00 0.00
5:53 am 05:53 Mostly Cloudy with Fog 71 21.7 71 21.7 100 100 Calm 30.04 1017 1 1 0.00 0.00
6:53 am 06:53 Mostly Cloudy with Fog 71 21.7 71 21.7 100 100 Calm 30.05 1018 1 1 0.00 0.00
7:03 am 07:03 Mostly Cloudy with Fog 71 21.7 71 21.7 100 100 Calm 30.06 1018 0 0 0.00 0.00
7:16 am 07:16 Cloudy with Mist and Fog 71 21.7 71 21.7 100 100 Calm 30.06 1018 1 1 0.00 0.00
7:24 am 07:24 Cloudy with Mist and Fog 71 21.7 71 21.7 100 100 Calm 30.06 1018 1 2 0.00 0.00
7:39 am 07:39 Cloudy with Mist and Fog 71 21.7 71 21.7 100 100 Calm 30.06 1018 3 4 0.00 0.00
7:46 am 07:46 Cloudy with Mist and Fog 71 21.7 71 21.7 100 100 Calm 30.06 1018 4 6 0.00 0.00
7:53 am 07:53 Cloudy with Mist and Fog 72 22.2 72 22.2 100 100 Calm 30.07 1018 4 6 0.00 0.00
8:53 am 08:53 Mostly Cloudy with Mist and Fog 73 22.8 73 22.8 100 100 Calm 30.08 1019 6 10 0.00 0.00
9:09 am 09:09 Mostly Cloudy 75 23.9 75 23.9 100 100 Calm 30.09 1019 7 11 0.00 0.00
9:44 am 09:44 Partly Cloudy 78 25.6 75 23.9 90 90 VRB 3 6 30.06 1018 8 13 0.00 0.00
9:53 am 09:53 Mostly Cloudy 78 25.6 75 23.9 90 90 Calm 30.09 1019 8 13 0.00 0.00
10:23 am 10:23 Partly Cloudy 80 26.7 76 24.4 87 87 Calm 30.06 1018 8 13 0.00 0.00
10:53 am 10:53 Mostly Sunny 83 28.3 77 25 82 82 VRB 3 6 30.08 1019 8 13 0.00 0.00
11:53 am 11:53 Sunny 85 29.4 76 24.4 75 75 Calm 30.07 1018 9 14 0.00 0.00
12:53 pm 12:53 Mostly Sunny 88 31.1 75 23.9 66 66 N 6 9 30.06 1018 10 16 0.00 0.00
1:53 pm 13:53 Sunny 91 32.8 75 23.9 59 59 Calm 30.05 1018 9 14 0.00 0.00
2:53 pm 14:53 Mostly Sunny 91 32.8 73 22.8 56 56 VRB 3 6 30.04 1017 10 16 0.00 0.00
3:53 pm 15:53 Mostly Cloudy 91 32.8 73 22.8 56 56 Calm 30.04 1017 10 16 0.00 0.00
4:53 pm 16:53 Mostly Sunny 91 32.8 73 22.8 56 56 VRB 5 7 30.02 1017 10 16 0.00 0.00
5:53 pm 17:53 Mostly Cloudy 91 32.8 72 22.2 54 54 Calm 30.01 1016 10 16 0.00 0.00
6:53 pm 18:53 Cloudy 89 31.7 76 24.4 65 65 undefined N/A 30.01 1016 9 14 0.00 0.00
7:53 pm 19:53 Mostly Cloudy 83 28.3 80 26.7 91 91 SE 3 6 30.04 1017 9 14 0.00 0.00
8:53 pm 20:53 Clear 81 27.2 73 22.8 77 77 S 9 15 30.05 1018 10 16 0.00 0.00
9:53 pm 21:53 Clear 79 26.1 74 23.3 85 85 Calm 30.06 1018 10 16 0.00 0.00
10:53 pm 22:53 Clear 76 24.4 74 23.3 94 94 Calm 30.08 1019 10 16 0.00 0.00
11:53 pm 23:53 Clear 75 23.9 74 23.3 96 96 Calm 30.07 1018 9 14 0.00 0.00

Powered by AerisWeather